Regional Weather Roundup
Issued by NWS

Home | Current Version | Previous Version | Text Only | Print | Product List | Glossary On
Versions: 1 2 3 4 5 6 7 8 9 10 11 12 13 14 15 16 17 18 19 20 21 22 23 24 25 26 27 28 29 30 31 32 33 34 35 36 37 38 39 40 41 42 43 44 45 46 47 48 49 50
748
ASUS43 KDTX 110101
RWRMI
MICHIGAN HOURLY REGIONAL WEATHER ROUNDUP
NATIONAL WEATHER SERVICE DETROIT/PONTIAC MI
800 PM EST SAT DEC 10 2016

NOTE: "FAIR" INDICATES FEW OR NO CLOUDS BELOW 12,000 FEET WITH NO
SIGNIFICANT WEATHER AND/OR OBSTRUCTION TO VISIBILITY.

MIZ047>049-052>055-059>063-066>070-074>076-081>083-110200-
SOUTHEAST LOWER MICHIGAN

CITY           SKY/WX    TMP DP  RH WIND       PRES   REMARKS
ADRIAN         PTCLDY    24  16  71 W6        30.43R WCI  17
ALMA           CLOUDY    19  15  82 CALM      30.39S
ANN ARBOR      CLOUDY    22  16  78 SW7       30.40S WCI  13
BAD AXE        CLOUDY    23  13  66 W5        30.37S WCI  17
CARO           CLEAR     19  14  79 SW3       30.37S
DETROIT CITY   PTCLDY    25  16  68 W8        30.41S WCI  16
DETROIT        CLOUDY    25  16  68 SW10      30.42S WCI  15
FLINT          PTCLDY    20  17  88 SW3       30.39S
GROSSE ILE     CLOUDY    26  16  66 SW6       30.41S WCI  19
HILLSDALE      MOCLDY    21  14  73 SW5       30.37S WCI  15
HOWELL         FLURRIES  23  20  88 SW5       30.38R WCI  17

CITY           SKY/WX    TMP DP  RH WIND       PRES   REMARKS
JACKSON        PTCLDY    21  15  78 SW6       30.39S WCI  13
LAMBERTVILLE   CLOUDY    27  16  62 W6        30.44R WCI  21
LANSING        CLOUDY    23  18  81 SW8       30.39F WCI  14
LAPEER         NOT AVBL
MASON          FLURRIES  23  19  87 SW7       30.39S WCI  14
MONROE         CLOUDY    26  19  75 SW3       30.42S
MT. CLEMENS    MOCLDY    24  16  70 SW7       30.37F WCI  16
PONTIAC        MOCLDY    22  18  85 SW5       30.37S WCI  16
PORT HOPE        N/A     24  11  57 SW7       30.34F WCI  16
PORT HURON     FLURRIES  23  19  86 CALM      30.40S
TRI CITIES     PTCLDY    19  12  74 W7        30.39S WCI  10
MIDLAND        FAIR      19  11  73 CALM      30.38R
TROY           CLOUDY    26  15  64 SW7       30.42R WCI  18
SAGINAW HB     CLEAR     23  12  63 SW6       30.39R WCI  16
$$
MIZ043>046-050>051-056>058-064>065-071>073-077>080-110200-
SOUTHWEST LOWER MICHIGAN

CITY           SKY/WX    TMP DP  RH WIND       PRES   REMARKS
BATTLE CREEK   CLOUDY    22  17  81 SW8       30.38F WCI  12
BENTON HARBOR  CLOUDY    24  14  65 S8        30.39F WCI  15
BIG RAPIDS     CLOUDY    17  11  77 CALM      30.34F
COLDWATER      CLOUDY    22  15  75 SW3       30.39F
FREMONT        MOCLDY    16  13  89 SE3       30.36F
HOLLAND        CLOUDY    25  18  74 S5        30.37F WCI  19
GRAND RAPIDS   LGT SNOW  22  18  85 S3        30.38F FOG
IONIA          FLURRIES  21  18  90 CALM      30.37F
KALAMAZOO      CLOUDY    23  14  68 SW9       30.39F WCI  13
LUDINGTON      CLOUDY    23  14  68 W7        30.35S WCI  15
MARSHALL       CLOUDY    21  17  83 CALM      30.39F
MOUNT PLEASANT CLOUDY    19  10  67 CALM      30.37S
MUSKEGON       CLOUDY    24  15  68 E7        30.37F WCI  16
SOUTH HAVEN    LGT SNOW  22  18  84 S7        30.39F WCI  14
$$
MIZ016>042-110200-
NORTHERN LOWER MICHIGAN

CITY           SKY/WX    TMP DP  RH WIND       PRES   REMARKS
ALPENA         CLEAR     17   6  62 SW5       30.34R WCI  10
BELLAIRE       CLOUDY    21  14  73 SW3       30.34F
CADILLAC       CLOUDY    16  11  82 SW3       30.30R
CHARLEVOIX     MOCLDY    21  14  76 SW9       30.33F WCI  10
FRANKFORT      CLOUDY    23  15  72 W5        30.34F WCI  16
GAYLORD        CLEAR     13   7  77 SW12      30.27F WCI  -1
GRAYLING       CLOUDY    17  12  81 SW5       30.32S WCI  10
HARBOR SPRINGS LGT SNOW  21  19  93 CALM      30.30S
HOUGHTON LAKE  FLURRIES  17  12  80 W5        30.33R WCI  10
MANISTEE       CLOUDY    20  12  71 S5        30.34F WCI  13
OSCODA         PTCLDY    18  10  70 MISG      30.35S
PELLSTON       LGT SNOW  19  16  88 SE3       30.30F FOG
ROGERS CITY    CLEAR     18  10  71 SW8       30.32S WCI   8
TRAVERSE CITY  FLURRIES  20  13  74 CALM      30.34S
$$
MIZ007>008-015-110200-
EASTERN UPPER MICHIGAN

CITY           SKY/WX    TMP DP  RH WIND       PRES   REMARKS
KINROSS        CLEAR      9   5  84 CALM      30.28S
MACKINAC ISLAN CLOUDY    20  16  82 NW8       30.28F WCI  10
NEWBERRY       CLEAR     14  11  90 SW8       30.27S WCI   3
S. S. MARIE    CLEAR     14   9  80 SW5       30.27S WCI   6
MUNISING         N/A     15   5  64 W5        30.31S WCI   8
$$
MIZ004>006-011>014-085-110200-
CENTRAL UPPER MICHIGAN

CITY           SKY/WX    TMP DP  RH WIND       PRES   REMARKS
MANISTIQUE     CLEAR      6   5  94 CALM      30.31S
ESCANABA       CLEAR     12   5  73 NW3       30.34S
MENOMINEE      CLEAR     14   4  64 W5        30.36  WCI   6
SAWYER-GWINN   CLEAR      5   1  85 W3        30.28F
$$
MIZ001>003-009>011-084-110200-
WESTERN UPPER MICHIGAN

CITY           SKY/WX    TMP DP  RH WIND       PRES   REMARKS
IRON MOUNTAIN  CLEAR      6  -2  69 CALM      30.28S
HOUGHTON       PTCLDY     9   4  80 W3        30.26F
COPPER HARBOR    N/A     16   9  74 SW3       30.30F
IRONWOOD       LGT SNOW  -6 -10  83 E3        30.28F FOG
$$

ABBREVIATIONS USED IN REMARKS
   TC - TEMPERATURE IN CELSIUS
  WCI - WIND CHILL INDEX
   HX - HEAT INDEX
  VSB - VISIBILITY





USA.gov is the U.S. government's official web portal to all federal, state and local government web resources and services.